Date String (YYYY-MM-DD hh:mm:ss) UTC,Instrument flags,absolute air pressure of the measurement (hPa),sample flow rate (lpm),inlet stack bypass flow (lpm),air temperature of the measurement (°C),ambient temperature measured by the external sensor (°C),aerosol sample conditioner tube jacket temperature (°C),OPC LED temperature (°C),internal box temperature (°C),relative humidity of the measurement (%),span deviation,mass concentration of particles derived from Lorenz-Mie calculation of OPC scattering (μg/m³),mass concentration of particles derived from Lorenz-Mie calculation of OPC scattering (μg/m³),mass concentration of particles derived from Lorenz-Mie calculation of OPC scattering (μg/m³)
DateTimeUTC,F1_M11,P_M11,Q1_M11,Q2_M11,T1_M11,T2_M11,T3_M11,T4_M11,T5_M11,U1_M11,ZSPAN_M11,X2_M11,X0_M11,X1_M11
2023-12-27 08:00:00,SystemResetWarning,0828.2,5.00,000.00,020.1,019.2,000.0,028.4,021.4,13.1,0000.0,0001.45,0002.38,0001.15
2023-12-27 08:01:00,SystemResetWarning,0828.2,5.00,000.00,020.1,019.2,000.0,028.4,021.4,12.9,0000.0,0001.45,0002.27,0001.16
2023-12-27 08:02:00,SystemResetWarning,0828.2,5.01,000.00,020.1,019.2,000.0,028.4,021.4,12.9,0000.0,0001.45,0002.28,0001.16
2023-12-27 08:03:00,SystemResetWarning,0828.2,5.00,000.00,020.1,019.2,000.0,028.4,021.4,12.9,0000.0,0001.43,0002.24,0001.15
2023-12-27 08:04:00,SystemResetWarning,0828.2,5.01,000.00,020.1,019.3,000.0,028.4,021.3,12.9,0000.0,0001.45,0002.28,0001.14
2023-12-27 08:05:00,SystemResetWarning,0828.2,5.00,000.00,020.0,019.3,000.0,028.4,021.3,13.2,0000.0,0001.44,0002.29,0001.14
2023-12-27 08:06:00,SystemResetWarning,0828.3,5.00,000.00,020.0,019.3,000.0,028.4,021.3,13.4,0000.0,0001.46,0002.30,0001.16
2023-12-27 08:07:00,SystemResetWarning,0828.3,5.01,000.00,020.0,019.3,000.0,028.4,021.3,13.2,0000.0,0001.46,0002.68,0001.17
2023-12-27 08:08:00,SystemResetWarning,0828.3,4.99,000.00,020.0,019.3,000.0,028.4,021.3,13.0,0000.0,0001.44,0003.21,0001.17
2023-12-27 08:09:00,SystemResetWarning,0828.3,5.00,000.00,020.0,019.3,000.0,028.4,021.3,13.0,0000.0,0001.42,0003.08,0001.17
2023-12-27 08:10:00,SystemResetWarning,0828.3,5.00,000.00,020.0,019.3,000.0,028.4,021.3,13.1,0000.0,0001.38,0002.97,0001.14
2023-12-27 08:11:00,SystemResetWarning,0828.4,5.00,000.00,020.0,019.3,000.0,028.4,021.2,13.1,0000.0,0001.38,0003.03,0001.11
2023-12-27 08:12:00,SystemResetWarning,0828.3,5.00,000.00,020.0,019.3,000.0,028.4,021.2,13.2,0000.0,0001.36,0003.07,0001.09
2023-12-27 08:13:00,SystemResetWarning,0828.4,5.00,000.00,020.0,019.3,000.0,028.3,021.2,13.2,0000.0,0001.35,0003.13,0001.07
2023-12-27 08:14:00,SystemResetWarning,0828.4,5.00,000.00,020.0,019.3,000.0,028.3,021.2,13.2,0000.0,0001.37,0003.22,0001.05
2023-12-27 08:15:00,SystemResetWarning,0828.4,5.00,000.00,020.0,019.3,000.0,028.3,021.2,13.3,0000.0,0001.36,0003.20,0001.04
2023-12-27 08:16:00,SystemResetWarning,0828.4,5.00,000.00,020.0,019.3,000.0,028.3,021.2,13.2,0000.0,0001.32,0003.11,0001.03
2023-12-27 08:17:00,SystemResetWarning,0828.4,5.00,000.00,020.0,019.3,000.0,028.3,021.2,13.2,0000.0,0001.31,0003.12,0001.03
2023-12-27 08:18:00,SystemResetWarning,0828.4,5.00,000.00,020.0,019.3,000.0,028.3,021.2,13.3,0000.0,0001.33,0002.80,0001.05
2023-12-27 08:19:00,SystemResetWarning,0828.4,5.01,000.00,020.0,019.2,000.0,028.3,021.2,13.2,0000.0,0001.32,0002.65,0001.04
2023-12-27 08:20:00,SystemResetWarning,0828.4,5.01,000.00,020.0,019.2,000.0,028.3,021.1,13.2,0000.0,0001.31,0002.64,0001.04
2023-12-27 08:21:00,SystemResetWarning,0828.4,5.00,000.00,020.0,019.2,000.0,028.3,021.2,13.1,0000.0,0001.32,0002.67,0001.05
2023-12-27 08:22:00,SystemResetWarning,0828.5,5.00,000.00,020.0,019.2,000.0,028.3,021.2,13.1,0000.0,0001.32,0002.63,0001.07
2023-12-27 08:23:00,SystemResetWarning,0828.6,5.01,000.00,020.0,019.2,000.0,028.3,021.2,13.1,0000.0,0001.33,0002.58,0001.08
2023-12-27 08:24:00,SystemResetWarning,0828.5,5.00,000.00,020.0,019.2,000.0,028.3,021.2,13.2,0000.0,0001.31,0002.47,0001.09
2023-12-27 08:25:00,SystemResetWarning,0828.6,5.00,000.00,020.0,019.2,000.0,028.3,021.2,13.2,0000.0,0001.27,0002.34,0001.09
2023-12-27 08:26:00,SystemResetWarning,0828.6,5.00,000.00,020.0,019.2,000.0,028.3,021.2,13.2,0000.0,0001.27,0002.36,0001.10
2023-12-27 08:27:00,SystemResetWarning,0828.6,5.00,000.00,020.0,019.2,000.0,028.3,021.2,13.3,0000.0,0001.30,0002.49,0001.11
2023-12-27 08:28:00,SystemResetWarning,0828.5,5.00,000.00,019.9,019.2,000.0,028.3,021.2,13.3,0000.0,0001.35,0002.58,0001.11
2023-12-27 08:29:00,SystemResetWarning,0828.6,5.00,000.00,019.9,019.1,000.0,028.3,021.2,13.4,0000.0,0001.32,0002.51,0001.11
2023-12-27 08:30:00,SystemResetWarning,0828.6,4.99,000.00,019.9,019.1,000.0,028.3,021.1,13.5,0000.0,0001.34,0002.10,0001.11
2023-12-27 08:31:00,SystemResetWarning,0828.6,4.99,000.00,019.9,019.1,000.0,028.3,021.1,13.5,0000.0,0001.35,0002.02,0001.13
2023-12-27 08:32:00,SystemResetWarning,0828.6,5.00,000.00,019.9,019.1,000.0,028.3,021.1,13.6,0000.0,0001.37,0002.04,0001.13
2023-12-27 08:33:00,SystemResetWarning,0828.6,5.01,000.00,019.9,019.1,000.0,028.3,021.1,13.5,0000.0,0001.38,0002.03,0001.13
2023-12-27 08:34:00,SystemResetWarning,0828.6,5.00,000.00,019.9,019.0,000.0,028.3,021.1,13.5,0000.0,0001.38,0002.12,0001.13
2023-12-27 08:35:00,SystemResetWarning,0828.6,5.00,000.00,019.9,019.0,000.0,028.3,021.1,13.5,0000.0,0001.38,0002.15,0001.13
2023-12-27 08:36:00,SystemResetWarning,0828.6,5.00,000.00,019.9,019.0,000.0,028.3,021.1,13.4,0000.0,0001.38,0002.16,0001.13
2023-12-27 08:37:00,SystemResetWarning,0828.6,4.99,000.00,019.9,018.9,000.0,028.2,021.0,13.4,0000.0,0001.40,0002.17,0001.14
2023-12-27 08:38:00,SystemResetWarning,0828.6,4.99,000.00,019.8,018.9,000.0,028.2,021.0,13.4,0000.0,0001.40,0002.13,0001.13
2023-12-27 08:39:00,SystemResetWarning,0828.6,4.99,000.00,019.8,018.9,000.0,028.2,021.0,13.3,0000.0,0001.35,0002.04,0001.12
2023-12-27 08:40:00,SystemResetWarning,0828.6,5.01,000.00,019.8,018.9,000.0,028.2,021.0,13.3,0000.0,0001.35,0002.04,0001.11
2023-12-27 08:41:00,SystemResetWarning,0828.6,5.01,000.00,019.8,018.9,000.0,028.2,021.0,13.3,0000.0,0001.34,0002.01,0001.10
2023-12-27 08:42:00,SystemResetWarning,0828.6,5.01,000.00,019.8,018.9,000.0,028.2,021.0,13.3,0000.0,0001.32,0002.00,0001.07
2023-12-27 08:43:00,SystemResetWarning,0828.6,4.99,000.00,019.8,018.9,000.0,028.2,021.0,13.3,0000.0,0001.30,0001.96,0001.06
2023-12-27 08:44:00,SystemResetWarning,0828.6,4.99,000.00,019.8,018.9,000.0,028.2,021.0,13.4,0000.0,0001.25,0001.87,0001.04
2023-12-27 08:45:00,SystemResetWarning,0828.6,4.99,000.00,019.8,018.9,000.0,028.2,021.0,13.4,0000.0,0001.26,0001.80,0001.03
2023-12-27 08:46:00,SystemResetWarning,0828.6,5.00,000.00,019.8,018.9,000.0,028.2,021.0,13.3,0000.0,0001.27,0001.80,0001.03
2023-12-27 08:47:00,SystemResetWarning,0828.7,5.00,000.00,019.8,018.9,000.0,028.2,021.0,13.3,0000.0,0001.30,0001.88,0001.03
2023-12-27 08:48:00,SystemResetWarning,0828.6,5.00,000.00,019.8,018.9,000.0,028.2,020.9,13.4,0000.0,0001.28,0001.87,0001.02
2023-12-27 08:49:00,SystemResetWarning,0828.7,5.00,000.00,019.8,018.8,000.0,028.1,020.9,13.4,0000.0,0001.28,0001.98,0001.01
2023-12-27 08:50:00,SystemResetWarning,0828.7,5.00,000.00,019.8,018.8,000.0,028.1,021.0,13.5,0000.0,0001.29,0002.53,0001.01
2023-12-27 08:51:00,SystemResetWarning,0828.7,5.00,000.00,019.8,018.8,000.0,028.1,020.9,13.5,0000.0,0001.30,0002.56,0001.02
2023-12-27 08:52:00,SystemResetWarning,0828.7,5.00,000.00,019.8,018.8,000.0,028.1,020.9,13.6,0000.0,0001.29,0002.56,0001.02
2023-12-27 08:53:00,SystemResetWarning,0828.7,5.00,000.00,019.7,018.8,000.0,028.1,020.9,13.6,0000.0,0001.32,0002.70,0001.02
2023-12-27 08:54:00,SystemResetWarning,0828.7,5.00,000.00,019.7,018.8,000.0,028.1,020.9,13.7,0000.0,0001.33,0002.75,0001.02
2023-12-27 08:55:00,SystemResetWarning,0828.7,5.00,000.00,019.7,018.8,000.0,028.1,020.9,13.8,0000.0,0001.35,0002.79,0001.02
2023-12-27 08:56:00,SystemResetWarning,0828.8,5.00,000.00,019.7,018.8,000.0,028.1,020.9,13.9,0000.0,0001.37,0002.80,0001.02
2023-12-27 08:57:00,SystemResetWarning,0828.8,5.00,000.00,019.7,018.8,000.0,028.1,020.8,14.0,0000.0,0001.36,0003.05,0001.02
2023-12-27 08:58:00,SystemResetWarning,0828.8,5.00,000.00,019.7,018.8,000.0,028.1,020.9,14.0,0000.0,0001.35,0004.49,0001.01
2023-12-27 08:59:00,SystemResetWarning,0828.7,4.99,000.00,019.7,018.8,000.0,028.1,020.9,14.0,0000.0,0001.35,0004.49,0001.01
